sat.trackr.live / text

‹ back to catalog

STARLINK-30448

NORAD 57928 · 2023-147R

PAYLOAD ACTIVE UNKNOWN

§ Identity

Operator
Country
US
Launch date
2023-09-24
Launch site
AFETR
Launch vehicle
Mass (kg)
RCS (m²)

Purposes: comms

External: N2YO · Heavens-Above · Gunter

§ Orbital elements

Epoch: 2026-09-20T04:32:42.207360Z

Period
94.27 min
Inclination
43.0048°
Eccentricity
0.0001610
Mean motion
15.27574115 rev/d
Perigee alt
482.0 km
Apogee alt
484.2 km
Semi-major
6,861.2 km
B*
6.1707e-6
RAAN
310.2289°
Arg perigee
285.6436°
Mean anomaly
74.4238°
Rev number
16,630

§ Raw data

STARLINK-304481 57928U 23147R   26263.18937740 -.00000093  00000+0  61707-5 0  99942 57928  43.0048 310.2289 0001610 285.6436  74.4238 15.27574115166301

JSON: /api/v1/satellites/57928 · /tle

For live sub-satellite position, see the globe view (requires WebGL).

§ Visibility from observer

Set your observer location to see the next 7 days of passes ≥ 10°. The values pass through the URL so the page stays shareable.

No JS? Fill the form by hand. The geolocation button needs JavaScript.